Regional Weather Roundup
Issued by NWS

Home | Current Version | Previous Version | Text Only | Print | Product List | Glossary Off
Versions: 1 2 3 4 5 6 7 8 9 10 11 12 13 14 15 16 17 18 19 20 21 22 23 24 25 26 27 28 29 30 31 32 33 34 35 36 37 38 39 40 41 42 43 44 45 46 47 48 49 50

000
ASUS43 KBIS 110410
RWRND

NORTH DAKOTA REGIONAL WEATHER ROUNDUP
NATIONAL WEATHER SERVICE BISMARCK ND
1100 PM CDT THU JUL 10 2014

NOTE: "FAIR" INDICATES FEW OR NO CLOUDS BELOW 12,000 FEET WITH NO
SIGNIFICANT WEATHER AND/OR OBSTRUCTIONS TO VISIBILITY.


NDZ001>003-009>011-017-110500-
NORTHWEST NORTH DAKOTA

CITY           SKY/WX    TMP DP  RH WIND       PRES   REMARKS
WILLISTON      CLEAR     73  62  68 N12       29.84R
MINOT          MOCLDY    73  66  78 S3        29.77R
MINOT AFB      MOCLDY    73  70  90 N3        29.78R
$$

NDZ018>021-031>035-040>046-110500-
SOUTHWEST NORTH DAKOTA

CITY           SKY/WX    TMP DP  RH WIND       PRES   REMARKS
BISMARCK       CLEAR     68  65  90 SE3       29.83R
DICKINSON      CLEAR     70  66  87 S9        29.82R
GARRISON         N/A     69  67  93 S6        29.80R
HETTINGER ARPT CLEAR     71  66  84 SE5       29.87R
$$

NDZ004>008-012>016-024-026-027-054-110500-
NORTHEAST NORTH DAKOTA

CITY           SKY/WX    TMP DP  RH WIND       PRES   REMARKS
GRAND FORKS    PTCLDY    70  64  81 S8        29.81F
GRND FRKS AFB  PTCLDY    69  68  99 S9        29.82S
DEVILS LAKE    PTCLDY    70  61  73 S9        29.79S
$$

NDZ022-023-025-028>030-036>039-047>053-110500-
SOUTHEAST NORTH DAKOTA

CITY           SKY/WX    TMP DP  RH WIND       PRES   REMARKS
FARGO          CLOUDY    71  68  90 SE10      29.84R
JAMESTOWN      CLEAR     68  65  90 SE5       29.83R
$$




USA.gov is the U.S. government's official web portal to all federal, state and local government web resources and services.